• Join FlightAware (Why Join?)
  • Login
  • US Flag GB Flag 
07:22 EDT


 

Airport Tracker/Info


-or-


 

Live Flight TrackerFlight Track Log ✈ UAL33 ✈ 20-Jun-2013 ✈ KIAH - KORD

Flight Track Log - Related Links

Times and Time Zones

All times are in EDT time to prevent confusion due to time zone crossing. See the UAL33 flight status page for this flight to view local times or setup timezone preferences in your user account.

Time Position Orientation Groundspeed Altitude Reporting Facility
EDT Latitude Longitude Course Direction KTS MPH feet Rate Location/Type
17:35 29.9541 -95.3368 151° Southeast 167 192 900  Level FlightAware ADS-B
17:35 29.9498 -95.3305 128° Southeast 171 197 1,200 1,980 Climbing FlightAware ADS-B
17:35 29.9488 -95.3277 112° Southeast 177 204 1,300 1,680 Climbing FlightAware ADS-B
17:35 29.9481 -95.3245 104° East 183 211 1,400 840 Climbing FlightAware ADS-B
17:35 29.9480 -95.3212 92° East 187 215 1,400 1,200 Level FlightAware ADS-B
17:35 29.9491 -95.3144 79° East 196 226 1,600 1,200 Climbing FlightAware ADS-B
17:35 29.9504 -95.3108 67° East 204 235 1,600 600 Level FlightAware ADS-B
17:35 29.9541 -95.3047 55° Northeast 215 247 1,700 960 Climbing FlightAware ADS-B
17:35 29.9578 -95.3008 42° Northeast 229 264 1,800 1,800 Climbing FlightAware ADS-B
17:36 29.9627 -95.2974 31° Northeast 234 269 2,000 2,160 Climbing FlightAware ADS-B
17:36 29.9687 -95.2950 19° North 241 277 2,200 2,460 Climbing FlightAware ADS-B
17:36 29.9752 -95.2941 North 243 280 2,500 2,400 Climbing FlightAware ADS-B
17:36 29.9797 -95.2942 359° North 243 280 2,600 2,700 Climbing FlightAware ADS-B
17:36 29.9979 -95.2960 355° North 246 283 3,400 2,160 Climbing FlightAware ADS-B
17:36 30.0219 -95.2983 355° North 268 308 3,900 780 Climbing FlightAware ADS-B
17:37 30.0422 -95.3002 355° North 279 321 3,900  Level FlightAware ADS-B
17:37 30.0786 -95.3033 356° North 283 326 3,900 120 Level FlightAware ADS-B
17:38 30.1315 -95.3074 356° North 282 325 4,100 1,380 Climbing FlightAware ADS-B
17:38 30.1723 -95.3119 346° North 284 327 5,600 2,880 Climbing FlightAware ADS-B
17:38 30.1855 -95.3203 324° Northwest 281 323 6,200 2,880 Climbing FlightAware ADS-B
17:40 30.2594 -95.3894 321° Northwest 296 341 9,600 2,340 Climbing FlightAware ADS-B
17:40 30.2939 -95.4222 321° Northwest 336 387 10,200 1,440 Climbing FlightAware ADS-B
17:41 30.3320 -95.4585 321° Northwest 357 411 11,100 2,400 Climbing FlightAware ADS-B
17:41 30.3763 -95.5006 321° Northwest 361 415 12,800 2,580 Climbing FlightAware ADS-B
17:42 30.4187 -95.5410 321° Northwest 371 427 14,000 2,280 Climbing FlightAware ADS-B
17:42 30.4589 -95.5792 321° Northwest 379 436 15,200 2,160 Climbing FlightAware ADS-B
17:43 30.5163 -95.6338 321° Northwest 395 455 16,600 2,160 Climbing FlightAware ADS-B
17:44 30.5634 -95.6668 333° Northwest 394 453 17,800 2,400 Climbing FlightAware ADS-B
17:44 30.6131 -95.6935 335° Northwest 396 456 19,000 2,100 Climbing FlightAware ADS-B
17:45 30.7159 -95.7485 335° Northwest 406 467 21,000 1,800 Climbing FlightAware ADS-B
17:46 30.8303 -95.8098 335° Northwest 421 484 22,900 1,680 Climbing FlightAware ADS-B
17:47 30.9410 -95.8694 335° Northwest 431 496 24,600 1,380 Climbing FlightAware ADS-B
17:48 31.0557 -95.9311 335° Northwest 449 517 25,800 1,200 Climbing FlightAware ADS-B
17:49 31.0926 -95.9510 335° Northwest 450 518 26,300 1,560 Climbing FlightAware ADS-B
17:49 31.1644 -95.9775 345° North 451 519 27,300 1,500 Climbing FlightAware ADS-B
17:50 31.2336 -95.9938 349° North 452 520 28,100 1,380 Climbing FlightAware ADS-B
17:51 31.3813 -96.0283 349° North 454 522 29,800 1,200 Climbing FlightAware ADS-B
17:52 31.5448 -96.0666 349° North 466 536 31,100 1,020 Climbing FlightAware ADS-B
17:53 31.6487 -96.0910 348° North 466 536 32,100 1,200 Climbing FlightAware ADS-B
17:54 31.7780 -96.1220 348° North 463 533 33,400 960 Climbing FlightAware
17:55 31.9030 -96.1510 349° North 462 532 34,500 720 Climbing FlightAware
17:56 32.0410 -96.1840 349° North 459 528 35,000 300 Climbing FlightAware
17:57 32.1350 -96.2060 349° North 454 522 35,000  Level FlightAware
17:58 32.3150 -96.2200 359° North 459 528 35,000  Level FlightAware
18:00 32.4850 -96.2220 359° North 459 528 35,000  Level FlightAware
18:00 32.5820 -96.2230 360° North 458 527 35,000  Level FlightAware
18:01 32.6630 -96.2240 359° North 459 528 35,000  Level FlightAware
18:02 32.7510 -96.2250 359° North 459 528 35,000  Level FlightAware
18:02 32.8460 -96.2260 359° North 459 528 35,000  Level FlightAware
18:03 32.9340 -96.2270 359° North 459 528 35,000  Level FlightAware
18:04 33.0270 -96.2280 359° North 459 528 35,000  Level FlightAware
18:05 33.1140 -96.2290 359° North 460 529 35,000  Level FlightAware
18:05 33.2020 -96.2300 359° North 460 529 35,000  Level FlightAware
18:06 33.2920 -96.2310 359° North 461 531 35,000  Level FlightAware
18:07 33.3860 -96.2200 North 474 545 35,000  Level FlightAware
18:07 33.4610 -96.1700 29° Northeast 478 550 35,000  Level FlightAware
18:08 33.5470 -96.1120 29° Northeast 477 549 35,000  Level FlightAware
18:09 33.6200 -96.0610 30° Northeast 477 549 35,000  Level FlightAware
18:09 33.6730 -96.0250 29° Northeast 476 548 35,000 60 Level FlightAware
18:10 33.7590 -95.9640 31° Northeast 480 552 35,100 480 Climbing FlightAware
18:10 33.8230 -95.9190 30° Northeast 479 551 35,700 960 Climbing FlightAware
18:11 33.9220 -95.8500 30° Northeast 475 547 36,500 720 Climbing FlightAware
18:12 34.0290 -95.7760 30° Northeast 476 548 37,000 240 Climbing FlightAware
18:13 34.1330 -95.7030 30° Northeast 476 548 37,000  Level FlightAware
18:14 34.2060 -95.6520 30° Northeast 476 548 37,000  Level FlightAware
18:15 34.2830 -95.5970 31° Northeast 475 547 37,000  Level FlightAware
18:15 34.3640 -95.5410 30° Northeast 475 547 37,000  Level FlightAware
18:16 34.4250 -95.4980 30° Northeast 475 547 37,000  Level FlightAware
18:17 34.5100 -95.4380 30° Northeast 475 547 37,000  Level FlightAware
18:17 34.6060 -95.3690 31° Northeast 473 544 37,000  Level FlightAware
18:18 34.6820 -95.3150 30° Northeast 471 542 37,000  Level FlightAware
18:19 34.7640 -95.2570 30° Northeast 471 542 37,000  Level FlightAware
18:20 34.8550 -95.1920 30° Northeast 471 542 37,000  Level FlightAware
18:21 34.9610 -95.1150 31° Northeast 473 544 37,000  Level FlightAware
18:21 35.0220 -95.0720 30° Northeast 473 544 37,000  Level FlightAware
18:22 35.1010 -95.0170 30° Northeast 473 544 37,000  Level FlightAware
18:23 35.2410 -94.9140 31° Northeast 479 551 37,000  Level FlightAware
18:24 35.2900 -94.8790 30° Northeast 479 551 37,000  Level FlightAware
18:24 35.4080 -94.7930 31° Northeast 479 551 37,000  Level FlightAware
18:26 35.5400 -94.6970 31° Northeast 472 543 37,000  Level FlightAware
18:26 35.6190 -94.6390 31° Northeast 472 543 37,000  Level FlightAware
18:27 35.6940 -94.5840 31° Northeast 471 542 37,000  Level FlightAware
18:28 35.7700 -94.5280 31° Northeast 470 541 37,000  Level FlightAware
18:28 35.8540 -94.4660 31° Northeast 470 541 37,000  Level FlightAware
18:29 35.9280 -94.4120 31° Northeast 469 540 37,000  Level FlightAware
18:30 36.0130 -94.3490 31° Northeast 468 539 37,000  Level FlightAware
18:30 36.0820 -94.2970 31° Northeast 467 537 37,000  Level FlightAware
18:31 36.1640 -94.2370 31° Northeast 466 536 37,000  Level FlightAware
18:32 36.2420 -94.1790 31° Northeast 466 536 37,000  Level FlightAware
18:33 36.3200 -94.1200 31° Northeast 465 535 37,000  Level FlightAware
18:33 36.3960 -94.0640 31° Northeast 465 535 37,000  Level FlightAware
18:34 36.4700 -94.0080 31° Northeast 465 535 37,000  Level FlightAware
18:35 36.5860 -93.9210 31° Northeast 463 533 37,000  Level FlightAware
18:36 36.7130 -93.8260 31° Northeast 462 532 37,000  Level FlightAware
18:37 36.7860 -93.7700 32° Northeast 463 533 37,000  Level FlightAware
18:37 36.8590 -93.7140 32° Northeast 463 533 37,000  Level FlightAware
18:38 36.9430 -93.6510 31° Northeast 465 535 37,000  Level FlightAware
18:39 37.0210 -93.5910 32° Northeast 467 537 37,000  Level FlightAware
18:39 37.0810 -93.5450 31° Northeast 467 537 37,000  Level FlightAware
18:40 37.1720 -93.4760 31° Northeast 465 535 37,000  Level FlightAware
18:41 37.2520 -93.4140 32° Northeast 463 533 37,000  Level FlightAware
18:41 37.2970 -93.3790 32° Northeast 463 533 37,000  Level FlightAware
18:42 37.3780 -93.3100 34° Northeast 463 533 37,000  Level FlightAware
18:43 37.4460 -93.2460 37° Northeast 463 533 37,000  Level FlightAware
18:44 37.5230 -93.1760 36° Northeast 463 533 37,000  Level FlightAware
18:44 37.5890 -93.1150 36° Northeast 464 534 37,000  Level FlightAware
18:45 37.6570 -93.0510 37° Northeast 465 535 37,000 -120 Level FlightAware
18:46 37.7390 -92.9750 36° Northeast 464 534 36,900 -600 Descending FlightAware
18:46 37.8120 -92.9070 36° Northeast 464 534 36,200 -960 Descending FlightAware
18:47 37.8810 -92.8430 36° Northeast 461 531 35,600 -900 Descending FlightAware
18:48 37.9540 -92.7750 36° Northeast 456 525 35,000 -480 Descending FlightAware
18:48 38.0170 -92.7160 36° Northeast 456 525 35,000  Level FlightAware
18:49 38.0980 -92.6400 36° Northeast 457 526 35,000  Level FlightAware
18:50 38.1690 -92.5730 37° Northeast 462 532 35,000  Level FlightAware
18:51 38.2390 -92.5070 37° Northeast 463 533 35,000  Level FlightAware
18:52 38.3810 -92.3730 36° Northeast 464 534 35,000  Level FlightAware
18:53 38.4660 -92.2920 37° Northeast 464 534 35,000  Level FlightAware
18:54 38.5350 -92.2280 36° Northeast 464 534 35,000  Level FlightAware
18:54 38.5870 -92.1800 36° Northeast 464 534 35,000  Level FlightAware
18:55 38.6370 -92.1330 36° Northeast 464 534 35,000  Level FlightAware
18:55 38.7050 -92.0700 36° Northeast 464 534 35,000  Level FlightAware
18:56 38.7770 -92.0030 36° Northeast 464 534 35,000  Level FlightAware
18:57 38.8980 -91.8760 39° Northeast 465 535 35,000  Level FlightAware
18:58 38.9520 -91.8240 37° Northeast 465 535 35,000  Level FlightAware
18:59 39.0550 -91.7240 37° Northeast 463 533 35,000  Level FlightAware
18:59 39.1090 -91.6710 37° Northeast 460 529 35,000  Level FlightAware
19:00 39.1730 -91.6090 37° Northeast 460 529 35,000  Level FlightAware
19:00 39.2540 -91.5300 37° Northeast 459 528 35,000 -660 Level FlightAware
19:01 39.3230 -91.4610 38° Northeast 457 526 34,100 -1,440 Descending FlightAware
19:02 39.3950 -91.3910 37° Northeast 460 529 33,000 -780 Descending FlightAware
19:03 39.4670 -91.3200 37° Northeast 459 528 33,000  Level FlightAware
19:04 39.5660 -91.2220 37° Northeast 458 527 33,000  Level FlightAware
19:04 39.6320 -91.1560 38° Northeast 459 528 33,000  Level FlightAware
19:05 39.6910 -91.0980 37° Northeast 459 528 33,000  Level FlightAware
19:06 39.8040 -90.9840 38° Northeast 456 525 33,000  Level FlightAware
19:06 39.8680 -90.9200 37° Northeast 456 525 33,000  Level FlightAware
19:07 39.9370 -90.8510 37° Northeast 456 525 33,000  Level FlightAware
19:08 40.0120 -90.7750 38° Northeast 457 526 33,000  Level FlightAware
19:09 40.0720 -90.7140 38° Northeast 457 526 33,000  Level FlightAware
19:09 40.1500 -90.6350 38° Northeast 456 525 33,000  Level FlightAware
19:11 40.2570 -90.5280 37° Northeast 456 525 33,000  Level FlightAware
19:11 40.3310 -90.4500 39° Northeast 454 522 33,000  Level FlightAware
19:12 40.3730 -90.4070 38° Northeast 453 521 33,000  Level FlightAware
19:13 40.4730 -90.3040 38° Northeast 451 519 33,000  Level FlightAware
19:13 40.5440 -90.2310 38° Northeast 450 518 33,000  Level FlightAware
19:14 40.6170 -90.1560 38° Northeast 450 518 33,000  Level FlightAware
19:15 40.6820 -90.0880 38° Northeast 449 517 33,000  Level FlightAware
19:16 40.7680 -89.9990 38° Northeast 449 517 33,000 -300 Level FlightAware
19:16 40.8400 -89.9240 38° Northeast 448 516 32,600 -1,740 Descending FlightAware
19:17 40.9100 -89.8510 38° Northeast 450 518 30,500 -2,940 Descending FlightAware
19:18 40.9810 -89.7760 39° Northeast 448 516 28,400 -2,760 Descending FlightAware
19:18 41.0460 -89.7070 39° Northeast 437 503 26,700 -2,220 Descending FlightAware
19:19 41.1080 -89.6270 44° Northeast 434 499 25,300 -1,440 Descending FlightAware
19:20 41.1510 -89.5360 58° Northeast 436 502 24,700 -1,380 Descending FlightAware
19:21 41.1920 -89.4420 60° Northeast 423 487 23,400 -2,040 Descending FlightAware
19:21 41.2300 -89.3550 60° Northeast 411 473 22,000 -2,220 Descending FlightAware
19:22 41.2720 -89.2590 60° Northeast 400 460 20,400 -2,220 Descending FlightAware
19:23 41.3150 -89.1630 59° Northeast 403 464 18,800 -2,160 Descending FlightAware
19:23 41.3480 -89.0870 60° Northeast 397 457 17,500 -2,340 Descending FlightAware
19:24 41.3890 -88.9920 60° Northeast 391 450 15,700 -2,100 Descending FlightAware
19:25 41.4310 -88.8950 60° Northeast 380 437 14,000 -2,040 Descending FlightAware
19:26 41.4760 -88.7920 60° Northeast 362 417 12,400 -1,320 Descending FlightAware
19:26 41.5090 -88.7150 60° Northeast 317 365 12,200 -780 Descending FlightAware
19:27 41.5380 -88.6430 62° Northeast 306 352 11,300 -1,020 Descending FlightAware
19:28 41.5660 -88.5730 62° Northeast 300 345 10,800 -300 Descending FlightAware
19:28 41.5930 -88.5050 62° Northeast 301 346 10,900 -480 Climbing FlightAware
19:29 41.6200 -88.4480 58° Northeast 303 349 10,200 -1,200 Descending FlightAware
19:29 41.6350 -88.4210 53° Northeast 302 348 9,800 -1,080 Descending FlightAware
19:30 41.6610 -88.3780 51° Northeast 297 342 9,400 -900 Descending FlightAware
19:30 41.6710 -88.3600 53° Northeast 297 342 9,200 -1,140 Descending FlightAware
19:31 41.6960 -88.3170 52° Northeast 296 341 8,600 -1,200 Descending FlightAware
19:31 41.7090 -88.3040 37° Northeast 294 338 8,400 -1,320 Descending FlightAware
19:31 41.7300 -88.2950 18° North 292 336 8,000 -1,260 Descending FlightAware
19:32 41.7670 -88.2940 North 292 336 7,500 -1,140 Descending FlightAware
19:32 41.8010 -88.2940 360° North 293 337 7,000 -780 Descending FlightAware
19:32 41.8420 -88.2940 360° North 271 312 6,800 -360 Descending FlightAware
19:33 41.8690 -88.2940 360° North 255 293 6,700 -720 Descending FlightAware
19:34 41.9230 -88.2910 North 248 285 6,000 -780 Descending FlightAware
19:34 41.9420 -88.2650 46° Northeast 228 262 5,800 -720 Descending FlightAware
19:34 41.9510 -88.2290 71° East 215 247 5,400 -900 Descending FlightAware
19:35 41.9550 -88.2130 71° East 211 243 5,200 -1,080 Descending FlightAware
19:35 41.9680 -88.1590 72° East 199 229 4,400 -1,260 Descending FlightAware
19:36 41.9680 -88.1230 90° East 198 228 3,700 -1,500 Descending FlightAware
19:36 41.9680 -88.0890 90° East 193 222 3,000 -1,560 Descending FlightAware
19:37 41.9680 -88.0570 90° East 187 215 2,300 -1,380 Descending FlightAware
19:37 41.9690 -88.0260 88° East 178 205 1,800 -900 Descending FlightAware
19:38 41.9690 -88.0010 90° East 168 193 1,500 -780 Descending FlightAware
19:38 41.9690 -87.9700 90° East 148 170 1,100 -900 Descending FlightAware
19:39 41.9690 -87.9450 90° East 148 170 700 -780 Descending FlightAware
19:39 41.9690 -87.9330 90° East 148 170 600 -240 Descending FlightAware
19:40 41.9690 -87.9000 90° East 145 167 500 -180 Descending FlightAware